CW6122 Weather Reports


Display with metric or nautical units.
time (UTC)temp
F
wind
direction
speed
MPH
gust
MPH
rain 1hr
in
rain 24hr
in
rain mn
in
humidity
%
barometer
mb
20171211054833 40 5 26.0 47.0 0.00 0.00 0.00 71 987.0
20171211054320 40 5 19.0 47.0 0.00 0.00 0.00 71 987.3
20171211053829 40 5 28.0 47.0 0.00 0.00 0.00 72 987.3
20171211053319 40 5 22.0 43.0 0.00 0.00 0.00 72 987.7
20171211052834 40 5 21.0 43.0 0.00 0.00 0.00 71 987.7
20171211052322 40 5 16.0 33.0 0.00 0.00 0.00 71 988.2
20171211051831 41 5 19.0 38.0 0.00 0.00 0.00 70 988.5
20171211051320 41 5 18.0 45.0 0.00 0.00 0.00 70 988.7
20171211050828 41 5 12.0 45.0 0.00 0.00 0.00 69 989.1
20171211050332 41 5 17.0 43.0 0.00 0.00 0.00 67 989.4
20171211045833 41 5 19.0 43.0 0.00 0.00 0.00 65 989.2
20171211045321 41 5 18.0 32.0 0.00 0.00 0.00 64 989.2
20171211044830 41 5 16.0 40.0 0.00 0.00 0.00 61 989.2
20171211044319 41 5 17.0 32.0 0.00 0.00 0.00 60 989.1
20171211043826 42 5 15.0 32.0 0.00 0.00 0.00 58 989.8
20171211043334 42 5 12.0 38.0 0.00 0.00 0.00 58 990.4
20171211042831 42 5 20.0 34.0 0.00 0.00 0.00 57 990.4
20171211042338 42 5 10.0 25.0 0.00 0.00 0.00 56 991.0
20171211041826 42 5 12.0 25.0 0.00 0.00 0.00 56 991.4
20171211041334 41 5 15.0 25.0 0.00 0.00 0.00 56 991.7
20171211040823 41 5 8.0 22.0 0.00 0.00 0.00 57 991.9
20171211040331 41 5 10.0 22.0 0.00 0.00 0.00 57 992.2
20171211035833 41 5 10.0 20.0 0.00 0.00 0.00 57 992.4
20171211035319 41 5 10.0 20.0 0.00 0.00 0.00 56 992.4
20171211034822 41 5 9.0 20.0 0.00 0.00 0.00 56 992.7
20171211034327 41 5 7.0 19.0 0.00 0.00 0.00 55 992.9
20171211033833 41 5 8.0 22.0 0.00 0.00 0.00 55 993.2
20171211033339 41 5 12.0 22.0 0.00 0.00 0.00 54 993.3
20171211032324 41 5 8.0 18.0 0.00 0.00 0.00 54 993.2
20171211031832 42 5 5.0 22.0 0.00 0.00 0.00 53 993.3
20171211031321 42 5 14.0 22.0 0.00 0.00 0.00 52 993.4
20171211030828 42 5 9.0 20.0 0.00 0.00 0.00 53 994.0
20171211030337 41 5 11.0 19.0 0.00 0.00 0.00 53 994.2
20171211025831 41 5 9.0 22.0 0.00 0.00 0.00 53 994.3
20171211025335 41 5 12.0 22.0 0.00 0.00 0.00 54 994.4
20171211024823 40 5 9.0 18.0 0.00 0.00 0.00 55 994.6
20171211024328 40 5 9.0 20.0 0.00 0.00 0.00 55 994.9
20171211023837 40 5 6.0 20.0 0.00 0.00 0.00 56 995.1
20171211023325 40 5 6.0 20.0 0.00 0.00 0.00 57 995.2
20171211022835 40 5 9.0 16.0 0.00 0.00 0.00 56 995.5
20171211022328 40 5 7.0 17.0 0.00 0.00 0.00 56 995.9
20171211021833 40 360 13.0 17.0 0.00 0.00 0.00 57 996.1
20171211021321 40 5 8.0 17.0 0.00 0.00 0.00 57 996.1
20171211020829 40 5 10.0 17.0 0.00 0.00 0.00 56 996.2
20171211020338 40 5 8.0 17.0 0.00 0.00 0.00 57 996.3
20171211015838 40 5 11.0 19.0 0.00 0.00 0.00 57 996.5
20171211015336 40 5 8.0 19.0 0.00 0.00 0.00 58 996.5
20171211014827 40 5 12.0 18.0 0.00 0.00 0.00 58 996.4
20171211014324 40 5 9.0 17.0 0.00 0.00 0.00 59 996.3
20171211013848 40 5 9.0 19.0 0.00 0.00 0.00 58 996.3
20171211013327 40 5 11.0 17.0 0.00 0.00 0.00 58 996.5
20171211012845 41 5 6.0 17.0 0.00 0.00 0.00 56 996.7
20171211012343 41 5 9.0 17.0 0.00 0.00 0.00 55 997.2
20171211011829 41 5 11.0 17.0 0.00 0.00 0.00 55 997.2
20171211011327 40 5 9.0 16.0 0.00 0.00 0.00 57 997.6
20171211010828 40 5 9.0 15.0 0.00 0.00 0.00 58 997.9
20171211010328 40 5 12.0 15.0 0.00 0.00 0.00 58 998.3
20171211005822 40 5 8.0 13.0 0.00 0.00 0.00 58 998.6
20171211005330 40 5 7.0 13.0 0.00 0.00 0.00 58 998.8
20171211004838 41 5 6.0 11.0 0.00 0.00 0.00 58 998.8
20171211004327 40 5 7.0 14.0 0.00 0.00 0.00 58 998.9
20171211003831 40 5 10.0 14.0 0.00 0.00 0.00 58 999.1
20171211003335 41 5 1.0 14.0 0.00 0.00 0.00 59 999.4
20171211002825 41 5 8.0 14.0 0.00 0.00 0.00 59 999.7
20171211002334 41 5 5.0 9.0 0.00 0.00 0.00 59 999.9
20171211001823 42 5 6.0 9.0 0.00 0.00 0.00 58 1000.1
20171211001332 42 5 4.0 6.0 0.00 0.00 0.00 57 1000.4
20171211000822 42 5 3.0 18.0 0.00 0.00 0.00 56 1000.6
20171211000328 42 5 8.0 18.0 0.00 0.00 0.00 56 1000.6
20171210235821 41 5 8.0 16.0 0.00 0.00 0.00 59 1001.2
20171210235330 40 5 7.0 16.0 0.00 0.00 0.00 61 1001.1
20171210234835 40 5 3.0 13.0 0.00 0.00 0.00 64 1001.6
20171210234322 40 5 4.0 9.0 0.00 0.00 0.00 64 1001.9
20171210233827 40 5 1.0 9.0 0.00 0.00 0.00 64 1002.0
20171210233336 40 5 5.0 10.0 0.00 0.00 0.00 65 1002.3
20171210232319 40 5 6.0 13.0 0.00 0.00 0.00 66 1002.8
20171210231828 39 5 5.0 13.0 0.00 0.00 0.00 67 1002.9
20171210231339 39 5 7.0 13.0 0.00 0.00 0.00 68 1003.3
20171210230825 39 5 9.0 18.0 0.00 0.00 0.00 69 1003.4
20171210230331 39 5 11.0 18.0 0.00 0.00 0.00 69 1003.3
20171210225830 39 5 6.0 16.0 0.00 0.00 0.00 69 1003.5
20171210225326 39 5 9.0 16.0 0.00 0.00 0.00 70 1003.4
20171210224833 39 5 10.0 16.0 0.00 0.00 0.00 70 1003.7
20171210224322 39 5 9.0 14.0 0.00 0.00 0.00 71 1004.1
20171210223831 39 5 7.0 13.0 0.00 0.00 0.00 71 1004.0
20171210223320 39 5 7.0 15.0 0.00 0.00 0.00 71 1004.2
20171210222831 39 5 11.0 15.0 0.00 0.00 0.00 71 1004.5
20171210222320 39 5 5.0 17.0 0.00 0.00 0.00 71 1004.4
20171210221830 39 5 10.0 17.0 0.00 0.00 0.00 71 1004.5
20171210221319 38 5 11.0 17.0 0.00 0.00 0.00 72 1004.5
20171210220829 38 5 8.0 14.0 0.00 0.00 0.00 73 1004.7
20171210220318 38 5 9.0 14.0 0.00 0.00 0.00 73 1004.7
20171210215818 38 5 9.0 16.0 0.00 0.00 0.00 74 1004.9
20171210215327 38 5 8.0 16.0 0.00 0.00 0.00 75 1004.9
20171210214836 37 5 11.0 15.0 0.00 0.00 0.00 75 1004.8
20171210214326 37 5 5.0 17.0 0.00 0.00 0.00 76 1004.8
20171210213835 37 5 9.0 15.0 0.00 0.00 0.00 77 1004.9
20171210213324 37 5 11.0 15.0 0.00 0.00 0.00 77 1005.0
20171210212828 37 5 11.0 15.0 0.00 0.00 0.00 78 1005.2
20171210212335 37 5 9.0 16.0 0.00 0.00 0.00 78 1005.2
20171210211822 37 5 10.0 16.0 0.00 0.00 0.00 78 1005.4
20171210211333 37 5 10.0 16.0 0.00 0.00 0.00 78 1005.5
20171210210821 37 5 10.0 17.0 0.00 0.00 0.00 77 1005.3
20171210210330 37 5 7.0 19.0 0.00 0.00 0.00 77 1005.4
20171210205827 37 5 10.0 16.0 0.00 0.00 0.00 77 1005.5
20171210205334 37 5 8.0 13.0 0.00 0.00 0.00 77 1005.4
20171210204821 38 5 10.0 13.0 0.00 0.00 0.00 76 1005.6
20171210204331 38 5 8.0 11.0 0.00 0.00 0.00 75 1005.6
20171210203820 39 5 3.0 10.0 0.00 0.00 0.00 74 1005.8
20171210203329 39 5 3.0 12.0 0.00 0.00 0.00 73 1005.8
20171210202820 39 5 6.0 12.0 0.00 0.00 0.00 72 1005.8
20171210202322 40 5 8.0 12.0 0.00 0.00 0.00 72 1005.6
20171210201829 39 5 4.0 16.0 0.00 0.00 0.00 70 1005.7
20171210201335 39 5 12.0 16.0 0.00 0.00 0.00 74 1005.6
20171210200824 38 5 6.0 18.0 0.00 0.00 0.00 75 1005.7
20171210200331 38 5 7.0 18.0 0.00 0.00 0.00 76 1005.8
20171210195846 38 5 8.0 16.0 0.00 0.00 0.00 75 1005.9
20171210195320 39 5 11.0 16.0 0.00 0.00 0.00 73 1005.8
20171210194828 40 5 7.0 16.0 0.00 0.00 0.00 72 1005.8
20171210194338 40 360 12.0 16.0 0.00 0.00 0.00 70 1005.6
20171210193826 40 5 7.0 13.0 0.00 0.00 0.00 71 1005.4
20171210193336 40 5 5.0 13.0 0.00 0.00 0.00 71 1005.6
20171210192825 39 5 5.0 14.0 0.00 0.00 0.00 72 1005.6
20171210191829 40 5 4.0 15.0 0.00 0.00 0.00 70 1005.5
20171210191335 40 5 9.0 17.0 0.00 0.00 0.00 70 1005.4
20171210190823 41 5 13.0 17.0 0.00 0.00 0.00 67 1005.0
20171210190330 42 5 2.0 16.0 0.00 0.00 0.00 63 1005.2
20171210185828 42 5 8.0 20.0 0.00 0.00 0.00 63 1005.4
20171210185336 42 5 12.0 20.0 0.00 0.00 0.00 65 1005.2
20171210184832 42 5 4.0 15.0 0.00 0.00 0.00 63 1005.3
20171210184320 43 5 5.0 21.0 0.00 0.00 0.00 61 1005.3
20171210183826 42 5 13.0 21.0 0.00 0.00 0.00 62 1005.3
20171210183334 42 5 3.0 16.0 0.00 0.00 0.00 65 1005.2
20171210182822 42 5 7.0 20.0 0.00 0.00 0.00 63 1005.2
20171210182327 43 5 9.0 18.0 0.00 0.00 0.00 59 1005.2
20171210181835 43 5 1.0 16.0 0.00 0.00 0.00 62 1005.3
20171210181321 44 5 5.0 24.0 0.00 0.00 0.00 60 1005.2
20171210180828 44 5 11.0 24.0 0.00 0.00 0.00 59 1005.0
20171210180330 44 5 7.0 25.0 0.00 0.00 0.00 59 1005.0
20171210175818 45 5 16.0 25.0 0.00 0.00 0.00 57 1004.9
20171210175324 45 5 11.0 18.0 0.00 0.00 0.00 58 1004.7
20171210174832 45 5 3.0 18.0 0.00 0.00 0.00 58 1004.7
20171210174320 44 5 7.0 24.0 0.00 0.00 0.00 59 1004.7
20171210173829 44 5 11.0 27.0 0.00 0.00 0.00 60 1004.7
20171210173336 43 5 14.0 22.0 0.00 0.00 0.00 64 1004.7
20171210172822 44 5 8.0 25.0 0.00 0.00 0.00 62 1004.3
20171210172328 45 5 9.0 25.0 0.00 0.00 0.00 62 1004.2
20171210171818 45 5 14.0 28.0 0.00 0.00 0.00 62 1004.4
20171210171326 44 5 17.0 28.0 0.00 0.00 0.00 64 1004.3
20171210170834 44 5 13.0 31.0 0.00 0.00 0.00 64 1004.4
20171210170321 44 5 16.0 31.0 0.00 0.00 0.00 63 1004.3
20171210165820 44 5 12.0 19.0 0.00 0.00 0.00 64 1004.2
20171210165328 44 5 10.0 24.0 0.00 0.00 0.00 65 1004.2
20171210164819 44 5 10.0 24.0 0.00 0.00 0.00 65 1004.1
20171210164332 45 5 7.0 25.0 0.00 0.00 0.00 65 1004.1
20171210163818 44 5 14.0 26.0 0.00 0.00 0.00 65 1004.0
20171210163324 44 5 10.0 26.0 0.00 0.00 0.00 66 1003.9
20171210162832 44 5 11.0 21.0 0.00 0.00 0.00 67 1003.9
20171210162319 44 5 12.0 28.0 0.00 0.00 0.00 67 1003.7
20171210161825 44 5 13.0 28.0 0.00 0.00 0.00 67 1003.8
20171210161332 44 5 12.0 28.0 0.00 0.00 0.00 67 1003.8
20171210160819 44 5 16.0 29.0 0.00 0.00 0.00 67 1003.7
20171210160326 44 5 16.0 27.0 0.00 0.00 0.00 68 1003.5
20171210155822 44 5 9.0 27.0 0.00 0.00 0.00 69 1003.2
20171210155325 44 5 14.0 26.0 0.00 0.00 0.00 69 1003.1
20171210154901 44 5 19.0 26.0 0.00 0.00 0.00 68 1002.9
20171210154319 44 5 15.0 25.0 0.00 0.00 0.00 68 1002.9
20171210153825 44 5 14.0 33.0 0.00 0.00 0.00 69 1002.5
20171210153331 44 5 19.0 33.0 0.00 0.00 0.00 69 1002.3
20171210152818 44 5 14.0 31.0 0.00 0.00 0.00 70 1002.2
20171210152326 44 5 14.0 29.0 0.00 0.00 0.00 70 1002.1
20171210151834 44 5 12.0 23.0 0.00 0.00 0.00 71 1001.8
20171210151337 44 5 13.0 26.0 0.00 0.00 0.00 71 1001.8
20171210150823 44 5 16.0 26.0 0.00 0.00 0.00 71 1001.5
20171210150329 44 5 14.0 25.0 0.00 0.00 0.00 71 1001.3
20171210145823 44 5 13.0 28.0 0.00 0.00 0.00 71 1001.2
20171210145330 44 5 15.0 29.0 0.00 0.00 0.00 71 1001.1
20171210144832 44 5 15.0 29.0 0.00 0.00 0.00 72 1000.9
20171210144324 44 5 14.0 23.0 0.00 0.00 0.00 73 1000.9
20171210143830 43 5 11.0 21.0 0.00 0.00 0.00 73 1000.7
20171210143318 43 5 6.0 16.0 0.00 0.00 0.00 71 1000.7
20171210142825 43 5 5.0 13.0 0.00 0.00 0.00 72 1000.5
20171210142331 43 5 5.0 10.0 0.00 0.00 0.00 71 1000.5
20171210141838 43 5 4.0 11.0 0.00 0.00 0.00 72 1000.1
20171210141320 42 5 4.0 13.0 0.00 0.00 0.00 70 1000.0
20171210140829 42 5 3.0 13.0 0.00 0.00 0.00 68 1000.2
20171210140334 42 5 6.0 14.0 0.00 0.00 0.00 68 999.7
20171210135834 43 5 5.0 13.0 0.00 0.00 0.00 68 999.6
20171210135322 43 5 2.0 10.0 0.00 0.00 0.00 68 999.4
20171210134833 43 360 5.0 9.0 0.00 0.00 0.00 68 999.4
20171210133817 43 5 3.0 12.0 0.00 0.00 0.00 70 999.4
20171210133326 43 360 5.0 11.0 0.00 0.00 0.00 67 999.3
20171210132834 43 5 2.0 14.0 0.00 0.00 0.00 68 999.1
20171210132323 43 5 4.0 14.0 0.00 0.00 0.00 69 999.1
20171210131832 43 5 2.0 11.0 0.00 0.00 0.00 68 999.0
20171210131319 43 5 5.0 12.0 0.00 0.00 0.00 68 999.1
20171210130824 43 5 8.0 12.0 0.00 0.00 0.00 68 998.8
20171210130332 43 5 5.0 8.0 0.00 0.00 0.00 70 998.8
20171210125825 43 5 4.0 10.0 0.00 0.00 0.00 70 998.6
20171210125333 43 5 4.0 11.0 0.00 0.00 0.00 70 998.9
20171210124837 43 5 5.0 22.0 0.00 0.00 0.00 71 998.6
20171210124342 42 5 12.0 22.0 0.00 0.00 0.00 72 998.4
20171210123825 42 5 8.0 14.0 0.00 0.00 0.00 71 998.4
20171210123332 42 5 8.0 18.0 0.00 0.00 0.00 72 998.1
20171210122818 42 5 15.0 18.0 0.00 0.00 0.00 71 998.0
20171210122324 42 5 9.0 16.0 0.00 0.00 0.00 71 997.9
20171210121829 42 5 8.0 15.0 0.00 0.00 0.00 72 997.5
20171210121336 42 5 2.0 15.0 0.00 0.00 0.00 72 997.5
20171210120826 42 5 10.0 15.0 0.00 0.00 0.00 72 997.5
20171210120320 42 5 5.0 14.0 0.00 0.00 0.00 73 997.7
20171210115835 42 5 6.0 17.0 0.00 0.00 0.00 74 997.3
20171210115321 41 5 11.0 19.0 0.00 0.00 0.00 74 996.9
20171210114831 41 5 13.0 21.0 0.00 0.00 0.00 74 996.9
20171210114321 41 5 12.0 21.0 0.00 0.00 0.00 74 996.8
20171210113829 41 5 11.0 19.0 0.00 0.00 0.00 74 996.7
20171210113331 41 360 12.0 19.0 0.00 0.00 0.00 73 996.5
20171210112818 42 5 7.0 18.0 0.00 0.00 0.00 73 996.5
20171210112327 42 5 12.0 17.0 0.00 0.00 0.00 73 996.5
20171210111834 42 5 5.0 15.0 0.00 0.00 0.00 72 996.1
20171210111321 42 5 7.0 15.0 0.00 0.00 0.00 73 995.9
20171210110828 42 5 7.0 19.0 0.00 0.00 0.00 73 995.7
20171210110334 42 5 11.0 19.0 0.00 0.00 0.00 73 995.7
20171210105833 42 5 12.0 17.0 0.00 0.00 0.00 73 995.5
20171210105322 42 5 10.0 16.0 0.00 0.00 0.00 73 995.4
20171210104822 42 5 8.0 16.0 0.00 0.00 0.00 73 995.3
20171210104330 42 5 6.0 16.0 0.00 0.00 0.00 73 995.3
20171210103836 42 5 9.0 15.0 0.00 0.00 0.00 73 995.0
20171210103317 42 5 9.0 16.0 0.00 0.00 0.00 73 995.0
20171210102826 42 5 10.0 16.0 0.00 0.00 0.00 73 995.0
20171210102335 42 5 11.0 16.0 0.00 0.00 0.00 73 995.0
20171210101821 42 5 12.0 16.0 0.00 0.00 0.00 73 995.0
20171210101330 42 5 8.0 14.0 0.00 0.00 0.00 73 994.8
20171210100818 41 5 7.0 10.0 0.00 0.00 0.00 73 994.7
20171210095819 42 5 7.0 11.0 0.00 0.00 0.00 73 994.7
20171210095327 42 5 5.0 13.0 0.00 0.00 0.00 73 994.7
20171210094835 42 5 9.0 19.0 0.00 0.00 0.00 73 994.7
20171210094336 42 5 7.0 20.0 0.00 0.00 0.00 73 994.5
20171210093824 42 5 15.0 20.0 0.00 0.00 0.00 72 994.4
20171210093329 42 5 14.0 20.0 0.00 0.00 0.00 72 994.1
20171210092823 42 5 14.0 19.0 0.00 0.00 0.00 72 994.0
20171210092327 42 5 11.0 16.0 0.00 0.00 0.00 72 994.0
20171210091835 42 5 9.0 17.0 0.00 0.00 0.00 72 994.0
20171210091321 42 5 11.0 17.0 0.00 0.00 0.00 72 993.8
20171210090827 42 5 10.0 19.0 0.00 0.00 0.00 73 993.8
20171210090330 42 5 9.0 19.0 0.00 0.00 0.00 73 993.8
20171210085321 41 5 12.0 20.0 0.00 0.00 0.00 74 993.7
20171210084831 41 5 11.0 19.0 0.00 0.00 0.00 75 993.4
20171210084320 41 5 11.0 17.0 0.00 0.00 0.00 75 993.3
20171210083827 41 5 10.0 18.0 0.00 0.00 0.00 75 993.4
20171210083334 41 5 9.0 18.0 0.00 0.00 0.00 76 993.5
20171210082821 41 5 10.0 18.0 0.00 0.00 0.00 75 993.2
20171210082321 41 5 14.0 20.0 0.00 0.00 0.00 75 993.4
20171210081830 41 5 12.0 20.0 0.00 0.00 0.00 75 993.0
20171210081320 41 5 11.0 18.0 0.00 0.00 0.00 75 993.2
20171210080825 41 5 12.0 19.0 0.00 0.00 0.00 75 993.2
20171210080334 41 5 13.0 19.0 0.00 0.00 0.00 74 993.1
20171210075829 41 5 12.0 20.0 0.00 0.00 0.00 75 993.1
20171210075329 41 5 14.0 21.0 0.00 0.00 0.00 75 992.9
20171210074835 40 5 14.0 21.0 0.00 0.00 0.00 76 992.7
20171210074325 40 5 14.0 20.0 0.00 0.00 0.00 77 992.7
20171210073834 40 5 15.0 22.0 0.00 0.00 0.00 77 992.6
20171210073324 40 5 14.0 22.0 0.00 0.00 0.00 78 992.6
20171210072833 40 5 12.0 19.0 0.00 0.00 0.00 78 992.6
20171210072322 40 5 11.0 25.0 0.00 0.00 0.00 78 992.8
20171210071832 40 5 10.0 25.0 0.00 0.00 0.00 77 992.6
20171210071322 40 5 13.0 23.0 0.00 0.00 0.00 78 992.6
20171210070832 40 5 12.0 23.0 0.00 0.00 0.00 77 992.4
20171210070321 40 5 14.0 19.0 0.00 0.00 0.00 77 992.5
20171210065818 40 5 4.0 28.0 0.00 0.00 0.00 75 992.2
20171210065356 40 5 8.0 30.0 0.00 0.00 0.00 77 992.1
20171210064835 40 5 12.0 30.0 0.00 0.00 0.00 77 991.9
20171210064322 40 5 11.0 29.0 0.00 0.00 0.00 76 991.8
20171210063828 40 5 16.0 29.0 0.00 0.00 0.00 76 991.7
20171210063317 40 5 11.0 26.0 0.00 0.00 0.00 76 991.9
20171210062825 40 5 13.0 24.0 0.00 0.00 0.00 75 991.7
20171210062332 41 5 10.0 23.0 0.00 0.00 0.00 75 991.8
20171210061822 40 5 13.0 24.0 0.00 0.00 0.00 74 991.9
20171210061329 40 5 13.0 24.0 0.00 0.00 0.00 74 992.1
20171210060838 40 5 11.0 24.0 0.00 0.00 0.00 74 992.1
20171210060326 40 5 13.0 20.0 0.00 0.00 0.00 74 992.2
20171210055819 40 5 11.0 22.0 0.00 0.00 0.00 75 992.3
20171210055325 39 5 11.0 22.0 0.00 0.00 0.00 76 992.3